User: anonymous   Login
Location: Drayton Valley
(53.2170°N, 114.9830°W)
Time: 14:04:57
(UTC-06:00)
Language:

Cosmos 1302 Rocket - Orbit

View from above orbital plane
View from above orbital plane
View from above satellite
View from above satellite

Ground track
Ground track

The orbit data is extracted from the following two-line orbital elements,

1 12792U 81084B   16147.94658293 +.00000040 +00000-0 +22147-4 0  9991
2 12792 074.0312 026.3789 0012934 042.9607 055.6690 14.37418432819288
Epoch (UTC): 26 May 2016 22:43:04
Eccentricity: 0.0012934
inclination: 74.0312°
perigee height: 758 km
apogee height: 776 km
right ascension of ascending node: 26.3789°
argument of perigee: 42.9607°
revolutions per day: 14.37418432
mean anomaly at epoch: 55.6690°
orbit number at epoch: 81928

The dashed part of the orbit path shows where the satellite is in the earth's shadow,  

DLR